{"data":{"norad_id":63863,"intl_designator":"2025-093AD","name":"STARLINK-33954","alt_names":[],"object_type":"PAYLOAD","status":"ACTIVE","operator":null,"country":"US","launch_date":"2025-05-07","launch_site_code":"AFETR","launch_vehicle":null,"mission":null,"orbit_class":"UNKNOWN","rcs_meters":null,"size_class":null,"mass_kg":null,"dimensions":null,"purposes":["comms"],"wikipedia_slug":null,"has_3d_model":false,"image_url":null,"decayed_at":null,"tle_current":{"epoch":"2026-09-19T18:51:57.705984Z","epoch_age_seconds":208687,"freshness":"STALE","line1":"1 63863U 25093AD  26262.78608456  .00014918  00000+0  55023-3 0  9997","line2":"2 63863  43.0025  61.9825 0001722 265.7346  94.3309 15.27598839 77434","mean_motion":15.27598839,"eccentricity":0.0001722,"inclination_deg":43.0025,"raan_deg":61.9825,"arg_perigee_deg":265.7346,"mean_anomaly_deg":94.3309,"bstar":0.00055023,"rev_number":7743,"period_min":94.265586175927,"perigee_km":481.81119934419,"apogee_km":484.174172408,"semimajor_km":6861.1296858761,"source":"CELESTRAK","updated_at":"2026-09-21T09:00:35.136801Z"}}}